Probability
0 0 0 0 0 0 0 0 0 0 0 0 0 0 0 0 1 2 4 6 8 8 5 5 5 4 4 4 3 3 3 3 3 3 3 3 3 2 1 0 0 0 0 0
0 0 0 0 0 0 0 0 0 0 0 0 0 0 0 0 0 1 3 4 6 6 5 4 3 3 4 3 3 3 3 3 3 3 3 3 3 3 2 1 0 0 0 0
0 0 0 0 0 0 0 0 0 0 0 0 0 0 0 0 0 1 3 3 3 4 4 3 2 3 3 3 3 3 3 3 3 3 3 3 3 3 3 2 1 0 0 0
0 0 0 0 0 0 0 0 0 0 0 0 0 0 0 0 1 2 3 2 1 2 2 2 1 2 3 3 3 3 3 3 3 3 3 3 3 3 3 3 2 1 0 0
0 0 0 0 0 0 0 0 0 0 0 0 0 0 0 0 1 2 2 1 0 1 1 1 0 1 3 3 3 3 3 3 3 3 3 3 3 3 3 3 3 2 1 0
0 0 0 0 0 0 0 0 0 0 0 0 0 0 0 0 0 1 1 0 0 0 0 0 0 1 2 3 3 3 3 3 4 3 3 3 3 3 3 3 3 3 2 1
0 0 0 0 0 0 0 0 0 0 0 0 0 0 0 0 0 0 0 0 0 0 0 0 0 0 1 1 2 3 3 4 4 4 3 3 3 3 3 3 3 3 2 1
0 0 0 0 0 0 0 0 0 0 0 0 0 0 0 0 0 0 0 0 0 0 0 0 0 0 0 0 1 1 2 3 4 4 3 3 3 3 3 3 3 3 2 1
0 0 0 0 0 0 0 0 0 0 0 0 0 0 0 0 0 0 0 0 0 0 0 0 0 0 0 0 0 0 1 1 3 3 3 3 3 3 3 3 3 3 2 1
0 0 0 0 0 0 0 0 0 0 0 0 0 0 0 0 0 0 0 0 0 0 0 0 0 0 0 0 0 0 0 0 1 2 3 3 3 3 3 3 3 3 2 1
0 0 0 0 0 0 0 0 0 0 0 0 0 0 0 0 0 0 0 0 0 0 0 0 0 0 0 0 0 0 0 0 0 1 1 2 3 3 3 3 3 2 1 0
0 0 0 0 0 0 0 0 0 0 0 0 0 0 0 0 0 0 0 0 0 0 0 0 0 0 0 0 0 0 0 0 0 0 0 1 2 3 3 2 1 1 0 0
0 0 0 0 0 0 0 0 0 0 0 0 0 0 0 0 0 0 0 0 0 0 0 0 0 0 0 0 0 0 0 0 0 0 0 0 1 2 3 2 0 0 0 0
0 0 0 0 0 0 0 0 0 0 0 0 0 0 0 0 0 0 0 0 0 0 0 0 0 0 0 0 0 0 0 0 0 0 0 0 0 1 2 2 1 0 0 0
0 0 0 0 0 0 0 0 0 0 0 0 0 0 0 0 0 0 0 0 0 0 0 0 0 0 0 0 0 0 0 0 0 0 0 0 0 0 1 2 1 0 0 0
0 0 0 0 0 0 0 0 0 0 0 0 0 0 0 0 0 0 0 0 0 0 0 0 0 0 0 0 0 0 0 0 0 0 0 0 0 0 0 1 1 0 0 0
0 0 0 0 0 0 0 0 0 0 0 0 0 0 0 0 0 0 0 0 0 0 0 0 0 0 0 0 0 0 0 0 0 0 0 0 0 0 0 0 0 0 0 0
0 0 0 0 0 0 0 0 0 0 0 0 0 0 0 0 0 0 0 0 0 0 0 0 0 0 0 0 0 0 0 0 0 0 0 0 0 0 0 0 0 0 0 0
0 0 0 0 0 0 0 0 0 0 0 0 0 0 0 0 0 0 0 0 0 0 0 0 0 0 0 0 0 0 0 0 0 0 0 0 0 0 0 0 0 0 0 0
0 0 0 0 0 0 0 0 0 0 0 0 0 0 0 0 0 0 0 0 0 0 0 0 0 0 0 0 0 0 0 0 0 0 0 0 0 0 0 0 0 0 0 0
0 0 0 0 0 0 0 0 0 0 0 0 0 0 0 0 0 0 0 0 0 0 0 0 0 0 0 0 0 0 0 0 0 0 0 0 0 0 0 0 0 0 0 0
0 0 0 0 0 0 0 0 0 0 0 0 0 0 0 0 0 0 0 0 0 0 0 0 0 0 0 0 0 0 0 0 0 0 0 0 0 0 0 0 0 0 0 0
0 0 0 0 0 0 0 0 0 0 0 0 0 0 0 0 0 0 0 0 0 0 0 0 0 0 0 0 0 0 0 0 0 0 0 0 0 0 0 0 0 0 0 0
0 0 0 0 0 0 0 0 0 0 0 0 0 0 0 0 0 0 0 0 0 0 0 0 0 0 0 0 0 0 0 0 0 0 0 0 0 0 0 0 0 0 0 0
0 0 0 0 0 0 0 0 0 0 0 0 0 0 0 0 0 0 0 0 0 0 0 0 0 0 0 0 0 0 0 0 0 0 0 0 0 0 0 0 0 0 0 0
0 0 0 0 0 0 0 0 0 0 0 0 0 0 0 0 0 0 0 0 0 0 0 0 0 0 0 0 0 0 0 0 0 0 0 0 0 0 0 0 0 0 0 0
Wind_Speed
3 4 1 2 3 3 3 3 6 6 4 3 6 9 10 6 3 5 5 5 5 5 4 2 2 3 1 1 2 2 1 1 1 1 1 1 1 1 1 1 2 2 2 2
4 2 3 2 1 1 3 4 5 5 2 3 6 9 7 5 3 3 3 4 5 5 5 3 3 2 0 1 1 1 1 1 1 1 1 1 1 1 1 1 1 2 2 2
1 2 2 1 1 2 3 4 4 5 5 2 4 7 4 3 1 3 3 3 4 4 4 4 3 2 0 0 1 1 1 1 1 1 0 0 1 1 0 1 1 1 2 2
1 3 2 1 2 1 4 3 4 4 3 4 2 5 5 3 3 4 5 5 5 5 4 4 3 2 1 1 0 0 0 0 1 1 1 2 2 1 2 1 1 1 2 2
2 2 2 1 3 1 3 4 3 2 1 3 1 3 7 3 4 5 5 6 6 5 4 4 4 2 1 0 0 1 1 1 0 1 1 1 1 1 0 0 1 1 1 2
2 2 1 2 3 1 2 2 2 2 2 3 3 3 7 2 3 5 6 6 6 5 5 5 4 2 2 1 1 1 1 1 1 1 1 1 1 1 1 1 1 1 1 1
5 3 2 1 3 3 3 3 4 5 3 5 1 2 7 4 3 3 5 7 7 5 5 5 5 4 3 2 2 1 0 1 1 1 1 1 2 2 3 3 3 2 2 2
3 5 3 2 1 1 1 2 3 2 4 5 2 5 6 3 3 3 3 4 5 6 6 5 5 4 3 2 2 2 1 2 1 1 2 1 1 1 2 2 2 3 2 3
1 5 4 3 2 1 1 1 1 2 1 4 5 6 7 3 5 6 6 6 6 6 7 6 5 4 3 3 2 2 2 2 2 2 2 1 1 2 2 2 2 2 2 2
3 3 5 4 2 3 1 2 3 2 1 4 6 5 4 6 6 7 7 7 7 7 6 6 5 4 4 3 2 3 3 3 3 2 1 2 1 1 1 1 2 2 2 2
2 1 5 3 1 1 2 2 2 1 1 2 5 7 3 3 3 4 6 7 7 7 6 6 5 4 4 3 3 3 3 4 3 3 2 2 2 1 1 1 1 2 1 1
1 2 3 4 2 0 1 2 3 1 3 2 3 8 2 2 3 3 5 7 6 6 5 5 5 4 4 4 3 3 3 3 3 3 2 2 2 1 1 1 2 2 1 1
2 3 3 5 3 3 1 0 1 1 1 2 4 9 2 4 5 5 6 7 6 7 6 5 5 4 4 3 4 4 4 3 3 2 2 2 2 1 1 1 1 1 1 1
3 2 4 6 4 2 4 4 1 2 3 5 8 11 9 8 9 8 7 7 6 6 6 6 5 5 4 4 4 4 4 3 3 2 2 2 3 2 2 1 1 1 2 1
3 2 3 6 6 4 6 7 6 7 7 8 9 9 12 8 8 7 6 6 6 6 7 6 6 5 4 4 4 4 4 3 3 2 2 2 2 2 2 2 2 1 2 2
2 1 1 4 4 5 8 10 9 9 8 9 10 12 8 6 5 5 6 6 6 7 7 7 6 6 6 5 4 4 4 4 3 2 2 2 2 2 2 2 2 2 2 2
2 2 0 4 4 5 8 8 8 6 6 6 9 9 6 7 7 7 6 6 6 6 7 7 6 6 6 6 5 5 5 4 3 2 2 2 2 2 2 2 2 2 2 2
5 3 1 2 4 6 7 1 3 5 6 6 7 6 5 7 8 6 4 4 5 5 6 6 6 6 6 5 5 4 4 4 3 3 3 2 2 2 2 2 2 2 2 2
4 5 2 1 3 10 6 2 2 3 6 5 6 7 7 6 5 4 3 3 4 5 5 5 5 5 5 6 5 4 4 3 3 3 3 3 2 2 2 3 3 2 2 2
3 3 3 2 3 7 5 1 1 2 6 3 3 6 5 4 4 5 4 4 4 4 4 4 4 4 5 5 4 4 4 4 3 3 3 3 2 2 2 2 2 2 2 2
2 2 4 4 6 11 5 1 2 2 7 3 3 4 3 4 6 6 6 5 4 4 4 4 4 4 4 5 4 3 4 4 4 3 3 3 3 2 2 2 2 2 2 2
7 6 6 5 6 11 3 4 5 7 3 2 3 4 4 6 7 6 5 5 4 4 4 4 4 4 4 4 3 4 4 4 3 3 3 3 3 3 2 2 2 2 2 2
8 9 7 10 10 5 4 6 5 2 3 3 3 5 4 5 6 6 5 4 4 4 4 4 4 5 5 4 3 3 4 4 3 3 3 3 4 3 2 2 2 2 2 1
5 3 4 6 10 7 7 6 5 4 5 5 5 5 4 5 6 6 5 4 4 4 3 4 4 4 5 5 4 3 4 4 3 3 3 3 3 3 3 3 2 2 2 2
6 6 4 8 9 6 6 7 6 5 5 4 4 4 4 4 5 5 4 4 4 4 3 3 3 3 4 4 4 4 4 3 3 3 3 4 3 3 3 3 3 3 2 2
7 9 9 9 7 5 6 4 4 4 5 5 4 5 4 3 4 4 4 3 3 3 3 3 3 3 4 4 4 4 4 3 2 3 3 3 3 3 3 3 4 6 5 6
Wind_Direction
22 62 30 255 227 234 242 245 268 272 278 278 259 268 281 291 290 293 302 302 292 281 288 293 292 285 275 183 155 154 152 160 127 146 185 203 230 259 197 174 162 162 158 170
40 355 277 263 253 257 246 263 274 291 301 283 279 277 275 277 266 278 303 310 301 312 322 320 313 298 231 167 169 174 181 173 158 208 220 223 210 216 210 181 165 168 162 172
153 277 309 340 345 314 272 236 254 282 313 311 315 294 271 291 287 338 341 326 322 316 307 297 295 274 264 170 187 201 206 174 189 219 202 98 70 55 206 166 170 186 181 190
297 301 322 348 310 301 280 267 262 284 316 300 5 289 276 298 314 335 334 332 322 323 325 308 302 292 270 258 260 266 251 132 183 186 195 176 168 209 241 232 209 208 196 201
299 317 341 301 285 252 254 302 293 281 222 303 274 246 286 345 320 315 317 323 322 323 324 314 309 278 272 273 37 344 352 343 288 258 218 190 206 225 184 187 185 212 210 208
279 290 274 265 307 267 286 345 21 50 73 293 249 206 283 301 292 311 321 324 322 326 331 326 328 340 351 2 43 46 356 297 294 292 264 201 203 199 177 216 209 238 247 232
333 326 336 348 353 3 32 44 13 357 359 264 249 226 258 285 302 310 318 324 326 333 337 337 341 343 354 357 346 350 334 302 305 298 281 240 226 217 206 208 211 215 231 245
337 309 327 352 347 291 336 110 142 241 267 293 305 252 265 292 323 339 338 327 338 342 342 336 333 331 333 336 332 326 308 294 297 296 284 255 241 235 240 236 228 226 231 238
221 282 323 341 329 102 84 93 163 148 287 285 281 291 298 317 345 355 357 354 346 340 339 334 336 337 330 330 328 317 311 309 310 300 295 271 263 253 247 251 245 244 246 243
167 276 305 320 1 14 81 133 82 97 286 288 294 280 280 314 325 337 345 342 334 337 338 338 341 341 331 328 334 338 334 331 323 310 307 312 290 276 269 257 255 258 258 250
140 186 310 348 17 321 39 57 84 117 183 220 287 278 253 270 301 314 318 321 325 328 331 335 340 341 339 339 342 337 339 340 339 329 323 315 304 291 295 284 278 268 263 252
121 125 277 267 263 311 172 162 142 167 260 227 255 273 310 318 315 318 316 319 325 326 328 336 340 343 349 344 342 340 335 330 321 323 324 313 305 301 297 296 292 286 281 270
132 107 346 336 343 7 3 12 126 147 153 204 232 269 329 349 336 331 321 318 325 330 335 339 346 351 345 340 338 341 333 323 328 337 331 323 320 329 315 296 305 302 293 292
109 147 189 221 249 242 277 277 222 165 212 242 241 268 299 319 323 323 321 318 322 327 332 341 344 342 339 338 336 331 326 324 329 332 331 333 329 323 312 313 321 308 301 302
96 212 245 261 269 258 257 259 232 219 223 235 263 269 283 299 301 301 307 316 324 328 332 336 338 337 338 336 333 325 321 329 334 334 338 326 323 331 335 339 332 324 319 316
84 191 284 283 273 265 269 260 243 238 240 249 272 278 282 299 304 305 309 316 316 318 325 330 333 336 336 332 330 328 327 330 334 332 324 325 336 342 340 336 337 335 334 334
143 140 239 278 316 322 273 242 216 220 219 214 242 262 312 315 309 296 297 304 302 308 317 321 322 323 321 321 323 324 321 328 337 335 332 334 341 342 334 330 342 337 335 343
153 144 168 296 1 257 251 222 205 228 245 235 257 282 294 291 296 287 282 283 293 307 314 316 316 319 319 320 325 325 329 338 340 341 337 339 347 340 335 345 345 341 337 336
161 151 152 183 271 279 290 254 182 214 269 240 249 278 298 315 314 300 298 292 282 295 301 304 308 312 319 322 326 333 335 338 343 346 339 335 337 332 340 349 344 338 339 334
87 121 140 162 234 255 263 249 185 123 284 266 239 271 299 344 327 298 319 324 312 313 313 313 318 325 326 322 329 337 334 341 342 339 331 328 332 331 335 334 333 332 331 329
133 148 186 201 239 264 257 212 121 170 264 296 251 264 263 240 249 281 308 314 310 314 317 320 325 326 321 323 335 337 340 337 329 334 337 342 344 336 332 339 341 335 339 350
182 180 195 179 217 254 198 143 188 230 276 286 276 269 261 269 285 295 300 306 317 323 327 330 332 328 329 336 343 339 336 330 333 341 344 345 343 343 354 1 351 351 354 359
206 195 191 200 222 248 190 210 233 240 259 267 266 273 270 278 288 298 302 308 314 317 322 329 332 329 335 342 348 336 327 335 345 354 351 350 352 355 357 4 359 357 3 359
244 195 205 253 260 254 248 250 254 239 244 266 270 272 263 272 283 293 300 308 315 320 323 330 334 336 336 340 344 333 328 338 355 3 357 358 2 2 7 7 6 2 355 350
218 180 212 255 271 287 262 233 242 251 255 266 275 268 261 265 279 285 292 301 308 317 327 329 328 327 326 335 344 342 343 354 10 7 0 1 5 8 8 10 8 352 347 331
193 188 193 231 233 223 259 261 241 242 252 258 272 287 284 259 268 282 288 298 308 318 329 331 333 330 329 338 341 341 347 357 11 5 2 3 3 3 4 8 9 12 5 360